Flag for U.S.A. Weather past 2 weeks in Winston-Salem, North Carolina, U.S.A.

Now
84 °F

Scattered clouds.


Feels Like: 89 °F
Forecast: 72 / 87 °F
Wind: 7 mph from West

Location: Smith Reynolds Airport

Current Time: Jul 29, 2015 at 2:05:47 PM

Latest Report: Jul 29, 2015 at 12:54 PM


Visibility: 10 mi

Pressure: 30.01 "Hg

Humidity: 65%

Dew point: 71 °F

Location of Winston-SalemLocation

Historic Weather in Winston-Salem — Graph

°F

Winston-Salem temperature yesterday

Maximum temperature yesterday: 87 °F (at 2:54 PM)
Minimum temperature yesterday: 71 °F (at 5:54 AM)
Average temperature yesterday: 78 °F

Past Weeks' High & Low Weather Summary

 TemperatureHumidityPressure
High93 °F (Jul 18, 3:54 PM)97% (Jul 24, 3:54 AM)30.11 "Hg (Jul 24, 3:54 AM)
Low67 °F (Jul 25, 6:54 AM)22% (Jul 14, 4:54 PM)29.63 "Hg (Jul 14, 5:54 PM)
Average79 °F70%29.93 "Hg
* Reported Jul 14 12:54 PM — Jul 29 12:54 PM, Winston-Salem, Weather by CustomWeather, © 2015

Note: Actual official high and low records may vary slightly from our data, if they occured in-between our weather recording intervals... More about our weather records

Advertising

Winston-Salem weather history for previous 24 hours

 ConditionsComfort  
Time TempWeatherWind HumidityBarometerVisibility
12:54 PM
Wed, Jul 29
84 °FScattered clouds.7 mph65%30.01 "Hg10 mi
11:54 AM81 °FOvercast.No wind74%30.03 "Hg10 mi
10:54 AM79 °FMore clouds than sun.5 mph79%30.04 "Hg9 mi
9:54 AM78 °FMostly cloudy.No wind84%30.03 "Hg6 mi
8:54 AM76 °FOvercast.3 mph88%30.03 "Hg9 mi
7:54 AM73 °FScattered clouds.No wind97%30.02 "Hg5 mi
6:54 AM71 °FDense fog.No wind96%30.00 "Hg1 mi
6:04 AM71 °FMostly cloudy.3 mph96%30.01 "Hg2 mi
5:54 AM71 °FMostly cloudy.No wind96%29.97 "Hg1 mi
4:54 AM72 °FDense fog.No wind97%29.97 "Hg1 mi
3:59 AM72 °FPassing clouds.No wind97%30.00 "Hg1 mi
2:54 AM73 °FPassing clouds.No wind97%29.98 "Hg9 mi
1:54 AM73 °FPassing clouds.5 mph97%30.00 "Hg8 mi
12:54 AM73 °FClear.No wind94%29.98 "Hg10 mi
11:54 PM
Tue, Jul 28
73 °FClear.No wind94%29.98 "Hg9 mi
10:54 PM74 °FClear.No wind94%30.00 "Hg9 mi
9:54 PM75 °FPassing clouds.No wind90%29.98 "Hg10 mi
8:54 PM75 °FSunny.3 mph94%29.98 "Hg8 mi
7:54 PM77 °FScattered clouds.No wind88%29.96 "Hg7 mi
6:56 PM75 °FCloudy.3 mph88%30.01 "Hg7 mi
5:01 PM86 °FThundershowers. Cloudy.8 mph61%29.97 "Hg10 mi
3:54 PM87 °FMostly cloudy.9 mph65%29.94 "Hg10 mi
2:54 PM87 °FSunny.9 mph65%29.96 "Hg10 mi
Weather by CustomWeather, © 2015

See weather overviewHow to use our weather pages